Погода в Кисуму

Кения     0°06′02″N   34°46′17″E
темп.,
°C
ветер,
м/с
пор.,
м/с
влажн.,
%
обл.,
%
осадки,
мм/ч
давл.,
гПа
погр.,
м
7 мая, пт
пт700:00+17ююз1298100 12.3 1015166
03:00+16ссв1196100 12.5 101438
06:00+16св1194100 0.0 101531
09:00+19ссв1183100 0.0 1016315
12:00+23зюз2274100 1.3 1014643
15:00+23зюз2276100 4.7 1011735
18:00+20зсз2489100 4.9 1012136
21:00+18с0192100 11.1 101429
8 мая, сб
сб800:00+17ю3699100 17.4 1016391
03:00+16юв1399100 30.3 1014157
06:00+16св1197100 9.3 101557
09:00+17св1291100 11.2 1017174
12:00+20сз3484100 0.3 1015775
15:00+20сз5684100 2.8 1013892
18:00+18ссз4789100 0.1 1014531
21:00+17ссв2493100 0.2 1017172
9 мая, вс
вс900:00+16св1193100 0.2 101747
03:00+16с1191100 0.0 101537
06:00+16в2389100 0.0 101684
09:00+18в2386100 0.1 1017202
12:00+20ссз1276100 0.1 1015662
15:00+21з3480100 1.9 1013892
18:00+18з469486 4.3 1014373
21:00+17в0195100 5.6 101644
10 мая, пн
пн1000:00+16всв1193100 0.1 101740
03:00+17юз1194100 0.2 101529
06:00+16св2293100 0.5 101643
09:00+18в118697 0.7 1017175
12:00+20юз2183100 0.4 1016470
15:00+17з3495100 1.3 1015254
18:00+17юз2396100 0.6 1016187
21:00+17всв229499 0.8 101872
11 мая, вт
вт1100:00+17ссв1190100 0.0 101727
03:00+16всв1190100 0.1 101638
06:00+16вюв1192100 0.0 101627
09:00+18ю1185100 0.0 1018229
12:00+21ююз3375100 0.1 1017869
15:00+21зюз447893 0.8 1014921
18:00+19з239182 1.5 1015277
21:00+17св1192100 1.9 101626